FW0689 Weather Reports


Display with metric or nautical units.
time (UTC)temp
F
wind
direction
speed
MPH
gust
MPH
rain 1hr
in
rain 24hr
in
rain mn
in
humidity
%
barometer
mb
20260510082232 59 360 0.0 0.0 0.00 0.00 0.00 37 1019.6
20260510081231 57 1 0.0 0.0 0.00 0.00 0.00 37 1019.8
20260510080234 57 338 0.0 0.0 0.00 0.00 0.00 37 1019.9
20260510075233 56 356 0.0 0.0 0.00 0.00 0.00 37 1020.0
20260510073335 55 6 0.0 0.0 0.00 0.00 0.00 37 1020.0
20260510070333 54 6 0.0 0.0 0.00 0.00 0.00 37 1019.9
20260510064333 52 336 0.0 0.0 0.00 0.00 0.00 37 1019.9
20260510064247 52 332 0.0 0.0 0.00 0.00 0.00 37 1019.9
20260510063330 51 331 0.0 0.0 0.00 0.00 0.00 37 1019.9
20260510060431 49 334 0.0 0.0 0.00 0.00 0.00 38 1020.0
20260510055431 48 325 0.0 0.0 0.00 0.00 0.00 39 1019.9
20260510054431 48 2 0.0 0.0 0.00 0.00 0.00 39 1019.9
20260510053434 46 315 0.0 0.0 0.00 0.00 0.00 40 1019.9
20260510052433 46 292 0.0 0.0 0.00 0.00 0.00 40 1019.9
20260510051433 45 292 0.0 0.0 0.00 0.00 0.00 40 1019.9
20260510050530 45 292 0.0 0.0 0.00 0.00 0.00 40 1019.9
20260510045547 44 292 0.0 0.0 0.00 0.00 0.00 41 1019.6
20260510035632 43 315 0.0 0.0 0.00 0.00 0.00 41 1019.6
20260510033730 43 315 0.0 0.0 0.00 0.00 0.00 41 1019.6
20260510032730 43 315 0.0 0.0 0.00 0.00 0.00 41 1019.6
20260510030732 43 315 0.0 0.0 0.00 0.00 0.00 41 1019.6
20260510025732 43 315 0.0 0.0 0.00 0.00 0.00 41 1019.7
20260510024736 43 292 0.0 0.0 0.00 0.00 0.00 40 1019.8
20260510023833 44 270 0.0 0.0 0.00 0.00 0.00 40 1019.9
20260510021932 44 315 0.0 0.0 0.00 0.00 0.00 41 1019.9
20260510020932 43 315 0.0 0.0 0.00 0.00 0.00 41 1019.9
20260510015934 43 315 0.0 0.0 0.00 0.00 0.00 41 1019.9
20260510014934 44 315 0.0 0.0 0.00 0.00 0.00 40 1019.9
20260510014032 44 315 0.0 0.0 0.00 0.00 0.00 40 1020.0
20260510013046 44 315 0.0 0.0 0.00 0.00 0.00 40 1019.9
20260510012133 44 315 0.0 0.0 0.00 0.00 0.00 40 1019.9
20260510010130 44 315 0.0 0.0 0.00 0.00 0.00 40 1020.0
20260510005131 44 315 0.0 0.0 0.00 0.00 0.00 40 1020.0
20260510004148 44 315 0.0 0.0 0.00 0.00 0.00 40 1020.1
20260510001230 45 337 0.0 0.0 0.00 0.00 0.00 39 1020.5
20260510000233 46 337 0.0 0.0 0.00 0.00 0.00 39 1020.4
20260509235230 46 337 0.0 0.0 0.00 0.00 0.00 39 1020.6
20260509234231 46 337 0.0 0.0 0.00 0.00 0.00 40 1020.7
20260509231233 45 315 0.0 0.0 0.00 0.00 0.00 40 1020.7
20260509230232 45 315 0.0 0.0 0.00 0.00 0.00 40 1020.8
20260509225331 46 315 0.0 0.0 0.00 0.00 0.00 40 1020.9
20260509223331 47 315 0.0 0.0 0.00 0.00 0.00 39 1021.1
20260509222431 47 315 0.0 0.0 0.00 0.00 0.00 39 1021.1
20260509220431 48 315 0.0 0.0 0.00 0.00 0.00 38 1021.2
20260509215529 49 315 0.0 0.0 0.00 0.00 0.00 39 1021.1
20260509214528 49 337 0.0 0.0 0.00 0.00 0.00 39 1021.1
20260509212627 49 337 0.0 0.0 0.00 0.00 0.00 39 1021.3
20260509211631 49 315 0.0 0.0 0.00 0.00 0.00 39 1021.4
20260509211530 49 315 0.0 0.0 0.00 0.00 0.00 38 1021.4
20260509205529 49 337 0.0 0.0 0.00 0.00 0.00 39 1021.5
20260509204627 49 292 0.0 0.0 0.00 0.00 0.00 39 1021.6
20260509203628 49 270 0.0 0.0 0.00 0.00 0.00 39 1021.5
20260509202629 49 270 0.0 0.0 0.00 0.00 0.00 39 1021.7
20260509201630 50 270 0.0 0.0 0.00 0.00 0.00 38 1021.6
20260509195629 50 270 0.0 0.0 0.00 0.00 0.00 40 1021.5
20260509194628 51 270 0.0 0.0 0.00 0.00 0.00 40 1021.5
20260509193630 53 270 0.0 0.0 0.00 0.00 0.00 40 1021.5
20260509192629 54 337 0.0 0.0 0.00 0.00 0.00 42 1021.3
20260509185629 56 315 0.0 0.0 0.00 0.00 0.00 43 1021.2
20260509184630 57 315 0.0 0.0 0.00 0.00 0.00 43 1021.3
20260509183727 58 315 0.0 0.0 0.00 0.00 0.00 43 1021.3
20260509182827 59 315 0.0 0.0 0.00 0.00 0.00 43 1021.2
20260509181830 60 315 0.0 0.0 0.00 0.00 0.00 43 1021.4
20260509175844 63 292 0.0 0.0 0.00 0.00 0.00 42 1021.3
20260509174845 65 22 0.0 0.0 0.00 0.00 0.00 41 1021.1
20260509173828 65 45 0.0 0.0 0.00 0.00 0.00 41 1021.1
20260509171829 65 292 0.0 0.0 0.00 0.00 0.00 42 1021.1
20260509165829 63 337 0.0 0.0 0.00 0.00 0.00 43 1021.1
20260509164829 62 344 0.0 0.0 0.00 0.00 0.00 43 1021.1
20260509163829 62 338 0.0 0.0 0.00 0.00 0.00 43 1021.1
20260509162927 63 67 0.0 0.0 0.00 0.00 0.00 43 1021.1
20260509160929 62 225 0.0 0.0 0.00 0.00 0.00 42 1021.0
20260509154930 63 340 0.0 0.0 0.00 0.00 0.00 42 1021.2
20260509153929 65 9 0.0 0.0 0.00 0.00 0.00 41 1021.3
20260509152930 66 60 0.0 0.0 0.00 0.00 0.00 41 1021.3
20260509152027 66 88 0.0 0.0 0.00 0.00 0.00 41 1021.3
20260509151030 66 257 0.0 0.0 0.00 0.00 0.00 40 1021.4
20260509150029 66 9 0.0 0.0 0.00 0.00 0.00 41 1021.5
20260509144029 63 58 0.0 0.0 0.00 0.00 0.00 43 1021.7
20260509143127 63 360 0.0 0.0 0.00 0.00 0.00 43 1021.8
20260509142131 63 112 0.0 0.0 0.00 0.00 0.00 42 1022.0
20260509141128 63 315 0.0 0.0 0.00 0.00 0.00 42 1022.0
20260509140128 63 97 0.0 0.0 0.00 0.00 0.00 42 1022.1
20260509135227 65 112 0.0 0.0 0.00 0.00 0.00 41 1022.1
20260509135146 65 106 0.0 0.0 0.00 0.00 0.00 41 1022.1
20260509134128 65 153 0.0 0.0 0.00 0.00 0.00 42 1022.2
20260509133145 64 226 0.0 0.0 0.00 0.00 0.00 42 1022.3
20260509132227 63 203 0.0 0.0 0.00 0.00 0.00 42 1022.5
20260509131228 62 112 0.0 0.0 0.00 0.00 0.00 42 1022.7
20260509130247 61 207 0.0 0.0 0.00 0.00 0.00 42 1022.9
20260509125228 62 112 0.0 0.0 0.00 0.00 0.00 42 1022.9
20260509121428 61 100 0.0 0.0 0.00 0.00 0.00 42 1023.2
20260509120427 61 314 0.0 0.0 0.00 0.00 0.00 41 1023.3
20260509115428 60 96 0.0 0.0 0.00 0.00 0.00 41 1023.3
20260509114527 60 108 0.0 0.0 0.00 0.00 0.00 41 1023.4
20260509113529 61 15 0.0 0.0 0.00 0.00 0.00 41 1023.5
20260509112529 61 71 0.0 0.0 0.00 0.00 0.00 41 1023.7
20260509111628 59 57 0.0 0.0 0.00 0.00 0.00 40 1023.8
20260509110626 59 173 0.0 0.0 0.00 0.00 0.00 41 1023.9
20260509105629 59 88 0.0 0.0 0.00 0.00 0.00 40 1024.0
20260509104643 58 66 0.0 0.0 0.00 0.00 0.00 40 1024.0
20260509103729 58 120 0.0 0.0 0.00 0.00 0.00 40 1024.2
20260509102728 58 102 0.0 0.0 0.00 0.00 0.00 40 1024.2
20260509100827 58 106 0.0 0.0 0.00 0.00 0.00 40 1024.2
20260509095829 59 48 0.0 0.0 0.00 0.00 0.00 39 1024.1
20260509094927 59 65 0.0 0.0 0.00 0.00 0.00 39 1024.1
20260509093928 59 59 0.0 0.0 0.00 0.00 0.00 39 1024.1
20260509093028 58 90 0.0 0.0 0.00 0.00 0.00 39 1024.1
20260509092029 58 96 0.0 0.0 0.00 0.00 0.00 39 1024.3
20260509091127 58 58 0.0 0.0 0.00 0.00 0.00 39 1024.3
20260509090127 58 15 0.0 0.0 0.00 0.00 0.00 39 1024.4
20260509085130 58 91 0.0 0.0 0.00 0.00 0.00 38 1024.3
20260509084128 57 63 0.0 0.0 0.00 0.00 0.00 38 1024.5